VU3FML-13 Weather Reports


time (UTC)temp
C
wind
direction
speed
KPH
gust
KPH
rain 1hr
cm
rain 24hr
cm
rain mn
cm
humidity
%
barometer
mb
20260505064913 -17 0 0.0 0.0 0.00 0.00 0.00 37 944.8
20260505063910 -17 0 0.0 0.0 0.00 0.00 0.00 38 944.9
20260505062907 -17 0 0.0 0.0 0.00 0.00 0.00 40 945.0
20260505061920 -17 0 0.0 0.0 0.00 0.00 0.00 40 945.2
20260505060917 -17 0 0.0 0.0 0.00 0.00 0.00 41 945.3
20260505055915 -17 0 0.0 0.0 0.00 0.00 0.00 42 945.5
20260505054912 -17 0 0.0 0.0 0.00 0.00 0.00 42 945.6
20260505053909 -17 0 0.0 0.0 0.00 0.00 0.00 43 945.7
20260505052906 -17 0 0.0 0.0 0.00 0.00 0.00 43 945.9
20260505051919 -17 0 0.0 0.0 0.00 0.00 0.00 43 946.0
20260505050916 -17 0 0.0 0.0 0.00 0.00 0.00 44 946.2
20260505040914 -17 0 0.0 0.0 0.00 0.00 0.00 48 946.3
20260505035911 -17 0 0.0 0.0 0.00 0.00 0.00 48 946.2
20260505034908 -17 0 0.0 0.0 0.00 0.00 0.00 48 946.3
20260505033905 -17 0 0.0 0.0 0.00 0.00 0.00 48 946.4
20260505032918 -17 0 0.0 0.0 0.00 0.00 0.00 48 946.4
20260505031916 -17 0 0.0 0.0 0.00 0.00 0.00 49 946.4
20260505030912 -17 0 0.0 0.0 0.00 0.00 0.00 49 946.4
20260505025909 -17 0 0.0 0.0 0.00 0.00 0.00 50 946.4
20260505024906 -17 0 0.0 0.0 0.00 0.00 0.00 50 946.4
20260505023920 -17 0 0.0 0.0 0.00 0.00 0.00 50 946.4
20260505022917 -17 0 0.0 0.0 0.00 0.00 0.00 49 946.3
20260505021914 -17 0 0.0 0.0 0.00 0.00 0.00 50 946.3
20260505020911 -17 0 0.0 0.0 0.00 0.00 0.00 50 946.2
20260505013349 -17 0 0.0 0.0 0.00 0.00 0.00 49 945.8
20260505012345 -17 0 0.0 0.0 0.00 0.00 0.00 49 945.7
20260505011342 -17 0 0.0 0.0 0.00 0.00 0.00 49 945.6
20260505010356 -17 0 0.0 0.0 0.00 0.00 0.00 49 945.5
20260505005353 -17 0 0.0 0.0 0.00 0.00 0.00 49 945.5
20260505004350 -17 0 0.0 0.0 0.00 0.00 0.00 48 945.4
20260505003347 -17 0 0.0 0.0 0.00 0.00 0.00 48 945.3
20260505002344 -17 0 0.0 0.0 0.00 0.00 0.00 48 945.3
20260505001341 -17 0 0.0 0.0 0.00 0.00 0.00 48 945.1
20260505000355 -17 0 0.0 0.0 0.00 0.00 0.00 48 945.1
20260504235352 -17 0 0.0 0.0 0.00 0.00 0.00 47 944.9
20260504234349 -17 0 0.0 0.0 0.00 0.00 0.00 47 944.8
20260504233346 -17 0 0.0 0.0 0.00 0.00 0.00 47 944.7
20260504232343 -17 0 0.0 0.0 0.00 0.00 0.00 47 944.6
20260504231356 -17 0 0.0 0.0 0.00 0.00 0.00 46 944.6
20260504230353 -17 0 0.0 0.0 0.00 0.00 0.00 46 944.4
20260504225350 -17 0 0.0 0.0 0.00 0.00 0.00 46 944.3
20260504224347 -17 0 0.0 0.0 0.00 0.00 0.00 46 944.3
20260504223344 -17 0 0.0 0.0 0.00 0.00 0.00 46 944.3
20260504222341 -17 0 0.0 0.0 0.00 0.00 0.00 46 944.2
20260504221355 -17 0 0.0 0.0 0.00 0.00 0.00 46 944.2
20260504220352 -17 0 0.0 0.0 0.00 0.00 0.00 46 944.1
20260504215349 -17 0 0.0 0.0 0.00 0.00 0.00 46 944.0
20260504214346 -17 0 0.0 0.0 0.00 0.00 0.00 46 944.0
20260504213343 -17 0 0.0 0.0 0.00 0.00 0.00 46 943.9
20260504212356 -17 0 0.0 0.0 0.00 0.00 0.00 46 943.8
20260504211353 -17 0 0.0 0.0 0.00 0.00 0.00 46 943.9
20260504210350 -17 0 0.0 0.0 0.00 0.00 0.00 46 943.9
20260504205347 -17 0 0.0 0.0 0.00 0.00 0.00 46 944.0
20260504204345 -17 0 0.0 0.0 0.00 0.00 0.00 46 943.9
20260504203341 -17 0 0.0 0.0 0.00 0.00 0.00 46 944.1
20260504202354 -17 0 0.0 0.0 0.00 0.00 0.00 45 944.1
20260504201351 -17 0 0.0 0.0 0.00 0.00 0.00 45 944.2
20260504200348 -17 0 0.0 0.0 0.00 0.00 0.00 45 944.2
20260504195345 -17 0 0.0 0.0 0.00 0.00 0.00 45 944.3
20260504194342 -17 0 0.0 0.0 0.00 0.00 0.00 45 944.2
20260504193355 -17 0 0.0 0.0 0.00 0.00 0.00 45 944.3
20260504192353 -17 0 0.0 0.0 0.00 0.00 0.00 45 944.3
20260504191350 -17 0 0.0 0.0 0.00 0.00 0.00 44 944.4
20260504190346 -17 0 0.0 0.0 0.00 0.00 0.00 44 944.4
20260504185343 -17 0 0.0 0.0 0.00 0.00 0.00 44 944.5
20260504184357 -17 0 0.0 0.0 0.00 0.00 0.00 44 944.5
20260504183354 -17 0 0.0 0.0 0.00 0.00 0.00 44 944.6
20260504182351 -17 0 0.0 0.0 0.00 0.00 0.00 44 944.5
20260504181348 -17 0 0.0 0.0 0.00 0.00 0.00 43 944.6
20260504180345 -17 0 0.0 0.0 0.00 0.00 0.00 43 944.6
20260504175342 -17 0 0.0 0.0 0.00 0.00 0.00 43 944.6
20260504174355 -17 0 0.0 0.0 0.00 0.00 0.00 42 944.7
20260504173352 -17 0 0.0 0.0 0.00 0.00 0.00 42 944.6
20260504172349 -17 0 0.0 0.0 0.00 0.00 0.00 42 944.5
20260504171346 -17 0 0.0 0.0 0.00 0.00 0.00 42 944.5
20260504170343 -17 0 0.0 0.0 0.00 0.00 0.00 42 944.6
20260504160342 -17 0 0.0 0.0 0.00 0.00 0.00 42 944.1
20260504150358 -17 0 0.0 0.0 0.00 0.00 0.00 39 943.3
20260504140355 -17 0 0.0 0.0 0.00 0.00 0.00 36 942.7
20260504130353 -17 0 0.0 0.0 0.00 0.00 0.00 33 942.1
20260504110350 -17 0 0.0 0.0 0.00 0.00 0.00 27 941.6
20260504100348 -17 0 0.0 0.0 0.00 0.00 0.00 29 942.0
20260504081347 -17 0 0.0 0.0 0.00 0.00 0.00 30 943.2
20260504080344 -17 0 0.0 0.0 0.00 0.00 0.00 30 943.2
20260504070358 -17 0 0.0 0.0 0.00 0.00 0.00 30 944.0